TimeEDT,TemperatureF,Dew PointF,Humidity,Sea Level PressureIn,VisibilityMPH,Wind Direction,Wind SpeedMPH,Gust SpeedMPH,PrecipitationIn,Events,Conditions,WindDirDegrees,DateUTC
12:52 AM,41.0,37.0,86,29.76,6.0,North,9.2,18.4,N/A,,Overcast,360,2013-04-13 04:52:00
1:52 AM,41.0,37.0,86,29.73,6.0,North,11.5,-,N/A,,Overcast,360,2013-04-13 05:52:00
2:52 AM,39.9,36.0,86,29.76,8.0,North,11.5,20.7,N/A,,Overcast,350,2013-04-13 06:52:00
3:52 AM,39.0,35.1,86,29.71,10.0,NE,9.2,23.0,0.00,,Overcast,40,2013-04-13 07:52:00
4:03 AM,39.0,35.1,86,29.72,10.0,NNE,11.5,17.3,N/A,,Overcast,30,2013-04-13 08:03:00
4:52 AM,39.0,35.1,86,29.73,10.0,NNE,15.0,21.9,0.01,,Overcast,20,2013-04-13 08:52:00
5:36 AM,39.9,35.1,83,29.75,10.0,North,8.1,-,N/A,,Overcast,360,2013-04-13 09:36:00
5:48 AM,39.2,35.6,87,29.76,10.0,North,11.5,19.6,N/A,,Overcast,360,2013-04-13 09:48:00
5:52 AM,39.9,35.1,83,29.76,10.0,North,6.9,19.6,N/A,,Overcast,10,2013-04-13 09:52:00
5:59 AM,39.9,35.1,83,29.76,10.0,North,12.7,18.4,N/A,,Overcast,10,2013-04-13 09:59:00
6:10 AM,39.0,35.1,86,29.77,10.0,North,11.5,18.4,N/A,,Overcast,10,2013-04-13 10:10:00
6:39 AM,39.9,34.0,79,29.79,10.0,North,8.1,19.6,N/A,,Overcast,360,2013-04-13 10:39:00
6:52 AM,39.9,34.0,79,29.81,8.0,NNW,6.9,-,0.00,Rain,Light Rain,340,2013-04-13 10:52:00
7:52 AM,39.0,35.1,86,29.81,9.0,North,8.1,-,0.00,,Overcast,360,2013-04-13 11:52:00
8:01 AM,39.0,35.1,86,29.81,9.0,North,10.4,-,N/A,,Overcast,360,2013-04-13 12:01:00
8:52 AM,39.9,34.0,79,29.84,10.0,North,9.2,-,N/A,,Overcast,350,2013-04-13 12:52:00
9:00 AM,39.9,34.0,79,29.84,10.0,NNW,9.2,-,N/A,,Overcast,340,2013-04-13 13:00:00
9:52 AM,39.9,33.1,77,29.85,10.0,North,9.2,-,N/A,,Overcast,350,2013-04-13 13:52:00
10:52 AM,43.0,35.1,74,29.86,10.0,NW,6.9,-,N/A,,Overcast,310,2013-04-13 14:52:00
11:23 AM,43.0,34.0,71,29.85,10.0,WNW,6.9,-,N/A,,Overcast,290,2013-04-13 15:23:00
11:52 AM,45.0,34.0,65,29.85,10.0,NNW,5.8,-,N/A,,Overcast,330,2013-04-13 15:52:00
12:23 PM,48.0,35.1,61,29.85,10.0,NNE,6.9,-,N/A,,Overcast,20,2013-04-13 16:23:00
12:41 PM,48.9,35.1,59,29.84,10.0,North,3.5,-,N/A,,Overcast,350,2013-04-13 16:41:00
12:52 PM,48.9,35.1,59,29.84,10.0,North,6.9,-,N/A,,Overcast,360,2013-04-13 16:52:00
1:05 PM,51.1,35.1,54,29.84,10.0,NW,8.1,-,N/A,,Overcast,310,2013-04-13 17:05:00
1:17 PM,52.0,35.1,53,29.84,10.0,WNW,8.1,-,N/A,,Mostly Cloudy,290,2013-04-13 17:17:00
1:52 PM,52.0,35.1,53,29.83,10.0,Variable,6.9,-,N/A,,Scattered Clouds,0,2013-04-13 17:52:00
2:52 PM,53.1,35.1,50,29.82,10.0,Calm,Calm,-,N/A,,Overcast,0,2013-04-13 18:52:00
3:52 PM,52.0,35.1,53,29.81,10.0,SSE,4.6,-,N/A,,Overcast,160,2013-04-13 19:52:00
4:52 PM,51.1,37.9,61,29.83,10.0,SSE,5.8,-,N/A,,Overcast,160,2013-04-13 20:52:00
5:52 PM,54.0,34.0,47,29.84,10.0,WNW,4.6,-,N/A,,Overcast,290,2013-04-13 21:52:00
6:52 PM,50.0,39.0,66,29.87,10.0,East,5.8,-,N/A,,Overcast,100,2013-04-13 22:52:00
7:52 PM,46.9,37.9,71,29.88,10.0,SE,6.9,-,N/A,,Scattered Clouds,130,2013-04-13 23:52:00
8:52 PM,45.0,39.0,80,29.91,10.0,Calm,Calm,-,N/A,,Overcast,0,2013-04-14 00:52:00
9:52 PM,45.0,39.0,80,29.93,10.0,SE,3.5,-,N/A,,Overcast,140,2013-04-14 01:52:00
10:52 PM,45.0,39.0,80,29.94,10.0,Calm,Calm,-,N/A,,Overcast,0,2013-04-14 02:52:00
11:52 PM,44.1,39.0,82,29.94,10.0,Calm,Calm,-,N/A,,Mostly Cloudy,0,2013-04-14 03:52:00